Regional Weather Roundup
Issued by NWS

Home | Current Version | Previous Version | Text Only | Print | Product List | Glossary On
Versions: 1 2 3 4 5 6 7 8 9 10 11 12 13 14 15 16 17 18 19 20 21 22 23 24 25 26 27 28 29 30 31 32 33 34 35 36 37 38 39 40 41 42 43 44 45 46 47 48 49 50
000
ASUS43 KLOT 280708
RWRIL

ILLINOIS REGIONAL WEATHER ROUNDUP
NATIONAL WEATHER SERVICE CHICAGO/ROMEOVILLE IL
200 AM CDT TUE MAR 28 2017

NOTE: "FAIR" INDICATES FEW OR NO CLOUDS BELOW 12,000 FEET WITH NO
SIGNIFICANT WEATHER AND/OR OBSTRUCTIONS TO VISIBILITY.

* THESE STATIONS ARE NOT UNDER NWS QUALITY CONTROL. THEY ALSO MAY NOT
  REPORT WEATHER SUCH AS PRECIPITATION OR FOG.

ILZ001-002-007-009-015-016-024-280800-
NORTHWEST ILLINOIS

CITY           SKY/WX    TMP DP  RH WIND       PRES   REMARKS
MOLINE         CLOUDY    50  44  80 N3        29.99S
STERLING*      CLOUDY    47  46  97 E5        30.00S FOG
SAVANNA*       CLOUDY    47  44  89 NE5       30.01R
$$

ILZ003-004-008-010-011-017-018-280800-
NORTH CENTRAL ILLINOIS

CITY           SKY/WX    TMP DP  RH WIND       PRES   REMARKS
ROCKFORD       DRIZZLE   45  41  86 E6        30.02R FOG
FREEPORT*      CLOUDY    45  44  98 N5        30.01S FOG
ROCHELLE*      CLOUDY    43  41  91 E7        30.01R FOG
DE KALB*       CLOUDY    41  39  92 NE10      30.01R
PERU*          CLOUDY    44  40  86 NE7       30.00R
$$

ILZ005-006-012>014-019>023-280800-
NORTHEAST ILLINOIS

CITY           SKY/WX    TMP DP  RH WIND       PRES   REMARKS
CHICAGO-OHARE  CLOUDY    42  36  79 N9        29.98F
CHICAGO-MIDWAY CLOUDY    42  36  79 NE8       29.98F
AURORA         CLOUDY    42  38  85 NE9       29.99S
LANSING*       CLEAR     38  37  97 N8        29.98F WCI  32
JOLIET*        MOCLDY    42  39  88 NE6       29.98S
WAUKEGAN       CLOUDY    39  36  89 N8        29.99F WCI  33
DUPAGE AIRPORT CLOUDY    41  39  93 NE7       29.98S
KANKAKEE*      CLEAR     40  37  89 N7        29.97S
WHEELING       CLOUDY    40  38  93 N3        30.00F
MORRIS*        CLOUDY    42  38  87 NE6       29.97S
ROMEOVILLE*    CLOUDY    41  39  94 NE12      29.97F
NORTHERLY ISL    N/A     39  36  89 N9          N/A  WCI  33
$$

LMZ740>746-280800-
SOUTHERN LAKE MICHIGAN

STATION/POSITION SKY/WX   TEMP    WIND        PRES    VSBY  WAVE
                          AIR SEA DIR/SP/G                  HT/PER
                          (F)     (DEG/KT/KT) (MB)    (MI)  (FT/S)
HARRISON CRIB              39     340/ 12/ 13   N/A
BURNHAM HARBOR             39     340/ 11/ 12   N/A
CALUMET HARBOR             38     330/ 10/ 12 1014.9F
BURNS HARBOR               38     340/ 10/ 14 1015.2
MICHIGAN CITY              38     330/ 11/ 12   N/A
$$

ILZ025>027-034>036-040-047-049-050-058-095>099-280800-
WEST-CENTRAL ILLINOIS

CITY           SKY/WX    TMP DP  RH WIND       PRES   REMARKS
QUINCY         CLOUDY    50  47  89 NW5       29.99S
GALESBURG*     CLOUDY    48  47  95 N5        29.98S
MACOMB*        CLOUDY    49  48  96 N7        30.01S FOG
JACKSONVILLE*  CLOUDY    50  49  95 N3        29.98S FOG
PITTSFIELD*    CLOUDY    51  50  95 NW6       30.00S FOG
$$

ILZ028>032-037-038-041>044-048-051>054-059>061-280800-
CENTRAL ILLINOIS

CITY           SKY/WX    TMP DP  RH WIND       PRES   REMARKS
PONTIAC        CLOUDY    46  45  96 NE9       29.98S
BLOOMINGTON    CLOUDY    45  43  93 N10       29.98R
DECATUR        CLOUDY    51  48  89 N9        29.95R
PEORIA         CLOUDY    51  49  92 N3        29.98S
LACON*         CLOUDY    47  46  97 NE5       29.98S FOG
LINCOLN*       CLOUDY    51  51 100 N6        29.97R FOG
SPRINGFIELD    CLOUDY    53  49  86 NW10      29.98R FOG
TAYLORVILLE    NOT AVBL
$$

ILZ033-039-045-046-055>057-062-063-280800-
EAST-CENTRAL ILLINOIS

CITY           SKY/WX    TMP DP  RH WIND       PRES   REMARKS
CHAMPAIGN      CLOUDY    48  45  89 N14       29.93R FOG
RANTOUL*       CLOUDY    47  45  94 N12       29.94R FOG
MATTOON        CLOUDY    50  50 100 N13       29.91R FOG
PARIS*         CLOUDY    50  50  99 N8        29.90S FOG
$$

ILZ079-100>102-280800-
SOUTHWEST ILLINOIS

CITY           SKY/WX    TMP DP  RH WIND       PRES   REMARKS
ALTON          CLOUDY    53  50  89 NW3       29.97R
BELLEVILLE     CLOUDY    55  54  99 N8        29.95R
CAHOKIA*       CLOUDY    55  51  86 NW8       29.96S
SPARTA*        CLOUDY    54  52  94 NW5       29.96R
$$

ILZ064>066-069>071-074>076-080>082-084>086-088>090-092>094-280800-
SOUTH-CENTRAL ILLINOIS

CITY           SKY/WX    TMP DP  RH WIND       PRES   REMARKS
CARBONDALE     CLOUDY    56  53  90 NW10      29.92R
CAIRO*         PTCLDY    54  51  92 W5        29.93R
EFFINGHAM*     CLOUDY    54  53  97 N10G17    29.93R
MARION         CLOUDY    57  57 100 NW6       29.93R
MT. VERNON     CLOUDY    56  53  90 VRB5      29.91R
CENTRALIA*     CLOUDY    55  53  95 NW8       29.92R
SALEM*         CLOUDY    55  52  89 NW9       29.92R
METROPOLIS*    CLOUDY    55  52  91 CALM      29.92R
$$

ILZ067-068-072-073-078-083-087-091-280800-
SOUTHEAST ILLINOIS

CITY           SKY/WX    TMP DP  RH WIND       PRES   REMARKS
LAWRENCEVILLE  CLOUDY    56  55  97 N12       29.87R
FLORA*         CLOUDY    57  54  89 N10       29.90R
FAIRFIELD*     CLOUDY    56  55  93 NW5       29.88R
HARRISBURG*    CLOUDY    57  55  92 NW9       29.91R
ROBINSON*      CLOUDY    55  54  97 N9        29.88R
CARMI*         CLOUDY    55  55  99 NW10      29.88R FOG
$$

ABBREVIATIONS USED IN REMARKS
   TC - TEMPERATURE IN CELSIUS
  WCI - WIND CHILL INDEX
   HX - HEAT INDEX
  VSB - VISIBILITY
$$





USA.gov is the U.S. government's official web portal to all federal, state and local government web resources and services.